Location: Newark
(52.0167°N, 6.1333°E)
Time: 11:36:27
(UTC+00:00)

ISS - Visible Passes

Search period start: 20 September 2019 00:00
Search period end: 30 September 2019 00:00
Orbit: 411 x 421 km, 51.6° (Epoch: 20 September)

Date Brightness Start Highest point End Pass type
(mag) Time Alt. Az. Time Alt. Az. Time Alt. Az.
20 Sep -2.1 19:24:37 10° SSW 19:26:21 21° S 19:26:21 21° S visible
21 Sep -2.1 18:36:45 10° S 18:39:07 18° SE 18:40:14 16° ESE visible
21 Sep -1.5 20:12:07 10° WSW 20:13:09 18° WSW 20:13:09 18° WSW visible
22 Sep -3.4 19:23:46 10° SW 19:26:51 45° SSE 19:26:51 45° SSE visible
23 Sep -2.9 18:35:31 10° SW 18:38:33 33° SSE 18:40:26 18° E visible
23 Sep -1.9 20:11:44 10° WSW 20:13:21 26° WSW 20:13:21 26° WSW visible
24 Sep -3.9 19:23:14 10° WSW 19:26:33 70° SSE 19:26:48 66° SE visible
25 Sep -3.6 18:34:48 10° WSW 18:38:04 56° SSE 18:40:11 20° E visible
25 Sep -1.8 20:11:24 10° W 20:13:05 27° W 20:13:05 27° W visible
26 Sep -4.0 19:22:52 10° W 19:26:12 85° S 19:26:23 77° ESE visible
27 Sep -3.8 18:34:19 10° WSW 18:37:39 79° S 18:39:41 22° E visible
27 Sep -1.6 20:11:01 10° W 20:12:33 25° W 20:12:33 25° W visible
28 Sep -3.9 19:22:28 10° W 19:25:48 83° S 19:25:49 83° S visible
29 Sep -3.8 18:33:53 10° W 18:37:13 86° S 18:39:02 25° E visible
29 Sep -1.4 20:10:37 10° W 20:11:55 21° W 20:11:55 21° W visible
